Flag for U.S.A. Weather past 2 weeks in Sioux Falls, South Dakota, U.S.A.

Now
53 °F

Clear.


Feels Like: 53 °F
Forecast: 52 / 76 °F
Wind: No wind

Location: Foss Field

Current Time: Jul 29, 2014 at 3:44:38 AM

Latest Report: Jul 29, 2014 at 2:56 AM


Visibility: 10 mi

Pressure: 30.21 "Hg

Humidity: 96%

Dew point: 52 °F

Location of Sioux FallsLocation

Historic Weather in Sioux Falls — Graph

°F

Sioux Falls temperature yesterday

Maximum temperature yesterday: 74 °F (at 2:56 PM)
Minimum temperature yesterday: 56 °F (at 3:56 AM)
Average temperature yesterday: 65 °F

Past Weeks' High & Low Weather Summary

 TemperatureHumidityPressure
High87 °F (Jul 21, 4:56 PM)97% (Jul 22, 1:56 AM)30.28 "Hg (Jul 22, 1:56 AM)
Low49 °F (Jul 16, 4:56 AM)37% (Jul 16, 7:56 PM)29.69 "Hg (Jul 25, 1:56 AM)
Average70 °F71%29.99 "Hg
* Reported Jul 14 2:56 AM — Jul 29 2:56 AM, Sioux Falls, Weather by CustomWeather, © 2014

Note: Actual official high and low records may vary slightly from our data, if they occured in-between our weather recording intervals... More about our weather records

Advertising

Sioux Falls weather history for previous 24 hours

 ConditionsComfort  
Time TempWeatherWind HumidityBarometerVisibility
2:56 AM
Jul 29
53 °FClear.No wind96%30.21 "Hg10 mi
1:56 AM55 °FClear.No wind93%30.21 "Hg10 mi
12:56 AM56 °FClear.No wind93%30.22 "Hg10 mi
11:56 PM
Jul 28
57 °FClear.No wind90%30.22 "Hg10 mi
10:56 PM59 °FClear.No wind81%30.22 "Hg10 mi
9:56 PM61 °FClear.5 mph78%30.21 "Hg10 mi
8:56 PM65 °FPassing clouds.3 mph68%30.20 "Hg10 mi
7:56 PM70 °FPassing clouds.8 mph57%30.19 "Hg10 mi
6:56 PM72 °FPassing clouds.10 mph53%30.19 "Hg10 mi
5:56 PM71 °FScattered clouds.8 mph55%30.21 "Hg10 mi
4:56 PM74 °FScattered clouds.10 mph52%30.22 "Hg10 mi
3:56 PM74 °FScattered clouds.9 mph50%30.24 "Hg10 mi
2:56 PM74 °FScattered clouds.9 mph52%30.24 "Hg10 mi
1:56 PM71 °FBroken clouds.9 mph55%30.25 "Hg10 mi
12:56 PM73 °FBroken clouds.9 mph55%30.24 "Hg10 mi
11:56 AM69 °FPartly sunny.16 mph68%30.26 "Hg10 mi
10:56 AM69 °FPartly sunny.10 mph70%30.26 "Hg10 mi
9:56 AM67 °FPartly sunny.14 mph73%30.27 "Hg10 mi
8:56 AM65 °FPartly sunny.12 mph78%30.27 "Hg10 mi
7:56 AM62 °FPartly sunny.9 mph86%30.26 "Hg10 mi
6:56 AM60 °FOvercast.7 mph90%30.25 "Hg10 mi
5:56 AM59 °FOvercast.9 mph87%30.25 "Hg10 mi
4:56 AM58 °FOvercast.8 mph90%30.24 "Hg10 mi
3:56 AM56 °FPassing clouds.8 mph90%30.23 "Hg10 mi
Weather by CustomWeather, © 2014

See weather overviewHow to use our weather pages